Weather History for KBML - December, 2012

Change the Weather History Date:

Wednesday, December 19, 2012

  Actual Average (WUND) Record (WUND)
Temperature  
Mean Temperature 35 °F -  
Max Temperature 37 °F - - (-1)
Min Temperature 33 °F - - (-1)
Degree Days  
Heating Degree Days 30    
Moisture  
Dew Point 32 °F    
Average Humidity 89    
Maximum Humidity 93    
Minimum Humidity 81    
Precipitation  
Precipitation 0.14 in - - ()
Sea Level Pressure  
Sea Level Pressure 29.64 in    
Wind  
Wind Speed 3 mph (NNW)    
Max Wind Speed 7 mph    
Max Gust Speed -    
Visibility 6 miles    
Events Rain , Snow    
Averages and records for this station are not official NWS values.
T = Trace of Precipitation, MM = Missing Value Source: NWS Daily Summary

Daily Weather History Graph

Daily Weather History Graph

Search for Another Location

Airport or City:

Trip Planner

Search our weather history database for the weather conditions in past years. The results will help you decide how hot, cold, wet, or windy it might be!

Date:

Astronomy

Dec. 19, 2012 Rise Set
Actual Time 7:17 AM EST 4:06 PM EST
Civil Twilight 6:43 AM EST 4:40 PM EST
Nautical Twilight 6:06 AM EST 5:17 PM EST
Astronomical Twilight 5:31 AM EST 5:52 PM EST
Moon 11:09 AM EST (12/19) 11:48 PM EST (12/19)
Length of Visible Light 9h 56m
Length of Day
8h 49m
Waxing Crescent, 45% of the Moon is Illuminated
Dec 19
Waxing Crescent
Dec 20
First Quarter
Dec 28
Full
Jan 4
Last Quarter
Jan 11
New

Hourly Weather History & Observations

Time (EST) Temp. Windchill Dew Point Humidity Pressure Visibility Wind Dir Wind Speed Gust Speed Precip Events Conditions
12:29 AM 33.8 °F 29.6 °F 32.0 °F 93% 29.46 in 4.0 mi NNW 4.6 mph - 0.00 in Snow Light Snow
12:45 AM 33.8 °F 29.6 °F 32.0 °F 93% 29.46 in 2.0 mi NNW 4.6 mph - 0.00 in Snow Light Snow
12:52 AM 34.0 °F 29.8 °F 32.0 °F 92% 29.49 in 3.0 mi NNW 4.6 mph - 0.01 in Snow Light Snow
1:13 AM 33.8 °F 29.6 °F 32.0 °F 93% 29.46 in 1.8 mi NW 4.6 mph - 0.01 in Snow Light Snow
1:20 AM 33.8 °F 30.8 °F 32.0 °F 93% 29.46 in 2.5 mi NNW 3.5 mph - 0.01 in Snow Light Snow
1:29 AM 33.8 °F 30.8 °F 32.0 °F 93% 29.46 in 3.0 mi NW 3.5 mph - 0.01 in Snow Light Snow
1:50 AM 33.8 °F 29.6 °F 32.0 °F 93% 29.47 in 5.0 mi NNW 4.6 mph - 0.02 in Snow Light Snow
1:52 AM 34.0 °F 31.0 °F 32.0 °F 92% 29.51 in 7.0 mi NW 3.5 mph - 0.02 in Snow Light Snow
2:14 AM 33.8 °F 30.8 °F 32.0 °F 93% 29.48 in 2.0 mi NW 3.5 mph - 0.00 in Snow Light Snow
2:27 AM 33.8 °F 30.8 °F 32.0 °F 93% 29.48 in 1.8 mi Variable 3.5 mph - 0.01 in Snow Light Snow
2:40 AM 33.8 °F 30.8 °F 32.0 °F 93% 29.48 in 2.5 mi NNW 3.5 mph - 0.02 in Snow Light Snow
2:50 AM 33.8 °F 30.8 °F 32.0 °F 93% 29.48 in 5.0 mi NW 3.5 mph - 0.02 in Snow Light Snow
2:52 AM 34.0 °F - 32.0 °F 92% 29.52 in 5.0 mi Calm Calm - 0.02 in Snow Light Snow
3:31 AM 33.8 °F 28.6 °F 32.0 °F 93% 29.49 in 6.0 mi North 5.8 mph - N/A   Overcast
3:52 AM 34.0 °F 29.8 °F 32.0 °F 92% 29.53 in 5.0 mi North 4.6 mph - N/A   Overcast
4:14 AM 33.8 °F 29.6 °F 32.0 °F 93% 29.49 in 4.0 mi North 4.6 mph - 0.00 in Snow Light Snow
4:29 AM 33.8 °F 28.6 °F 32.0 °F 93% 29.50 in 4.0 mi North 5.8 mph - 0.00 in Snow Light Snow
4:52 AM 34.0 °F - 32.0 °F 92% 29.54 in 10.0 mi Calm Calm - 0.00 in   Overcast
5:12 AM 33.8 °F 30.8 °F 32.0 °F 93% 29.51 in 7.0 mi NNW 3.5 mph - 0.00 in Snow Light Snow
5:26 AM 33.8 °F - 32.0 °F 93% 29.51 in 2.5 mi Calm Calm - 0.00 in Snow Light Snow
5:37 AM 33.8 °F - 32.0 °F 93% 29.52 in 1.5 mi Calm Calm - 0.01 in Snow Light Snow
5:52 AM 34.0 °F 29.8 °F 32.0 °F 92% 29.56 in 1.5 mi NNW 4.6 mph - 0.02 in Snow Light Snow
6:08 AM 33.8 °F 30.8 °F 32.0 °F 93% 29.53 in 1.8 mi NW 3.5 mph - 0.01 in Snow Light Snow
6:16 AM 33.8 °F - 32.0 °F 93% 29.53 in 2.0 mi Calm Calm - 0.01 in Snow Light Snow
6:41 AM 33.8 °F 30.8 °F 32.0 °F 93% 29.54 in 1.8 mi NNW 3.5 mph - 0.02 in Snow Light Snow
6:48 AM 33.8 °F 30.8 °F 32.0 °F 93% 29.55 in 2.0 mi NNW 3.5 mph - 0.02 in Snow Light Snow
6:52 AM 34.0 °F 31.0 °F 32.0 °F 92% 29.59 in 3.0 mi NW 3.5 mph - 0.02 in Snow Light Snow
7:07 AM 33.8 °F 28.6 °F 32.0 °F 93% 29.55 in 1.8 mi NNW 5.8 mph - 0.00 in Snow Light Snow
7:17 AM 33.8 °F 30.8 °F 32.0 °F 93% 29.56 in 2.5 mi NNW 3.5 mph - 0.00 in Snow Light Snow
7:27 AM 33.8 °F 30.8 °F 32.0 °F 93% 29.56 in 3.0 mi NW 3.5 mph - 0.01 in Snow Light Snow
7:41 AM 33.8 °F 29.6 °F 32.0 °F 93% 29.57 in 1.8 mi NNW 4.6 mph - 0.01 in Snow Light Snow
7:52 AM 34.0 °F 31.0 °F 32.0 °F 92% 29.61 in 1.0 mi NNW 3.5 mph - 0.01 in Snow Light Snow
8:02 AM 33.8 °F 29.6 °F 32.0 °F 93% 29.58 in 1.2 mi NNW 4.6 mph - 0.01 in Snow Light Snow
8:07 AM 33.8 °F 29.6 °F 32.0 °F 93% 29.58 in 2.0 mi NNW 4.6 mph - 0.01 in Snow Light Snow
8:50 AM 33.8 °F 27.7 °F 32.0 °F 93% 29.60 in 1.2 mi NNW 6.9 mph - 0.01 in Snow Light Snow
8:52 AM 34.0 °F 29.8 °F 32.0 °F 92% 29.64 in 1.2 mi NNW 4.6 mph - 0.01 in Snow Light Snow
9:29 AM 35.6 °F 32.8 °F 32.0 °F 87% 29.62 in 2.0 mi NW 3.5 mph - 0.01 in Snow Light Snow
9:38 AM 35.6 °F 32.8 °F 32.0 °F 87% 29.62 in 4.0 mi NW 3.5 mph - 0.01 in Snow Light Snow
9:52 AM 36.0 °F 32.1 °F 32.0 °F 86% 29.65 in 10.0 mi NNW 4.6 mph - 0.01 in   Overcast
10:29 AM 35.6 °F 31.7 °F 32.0 °F 87% 29.62 in 10.0 mi North 4.6 mph - N/A   Overcast
10:48 AM 35.6 °F - 32.0 °F 87% 29.63 in 10.0 mi Calm Calm - N/A   Overcast
10:52 AM 36.0 °F - 32.0 °F 86% 29.67 in 10.0 mi Calm Calm - N/A   Overcast
11:11 AM 35.6 °F - 32.0 °F 87% 29.64 in 10.0 mi Calm Calm - N/A   Overcast
11:52 AM 37.0 °F 33.3 °F 32.0 °F 82% 29.68 in 10.0 mi North 4.6 mph - 0.00 in   Overcast
12:08 PM 37.4 °F 34.9 °F 32.0 °F 81% 29.65 in 10.0 mi Variable 3.5 mph - 0.01 in   Overcast
12:52 PM 37.0 °F 32.4 °F 32.0 °F 82% 29.71 in 10.0 mi NNW 5.8 mph - 0.01 in   Overcast
1:05 PM 37.4 °F 34.9 °F 32.0 °F 81% 29.68 in 10.0 mi NNW 3.5 mph - N/A   Overcast
1:15 PM 37.4 °F 34.9 °F 32.0 °F 81% 29.69 in 10.0 mi NNW 3.5 mph - N/A   Overcast
1:28 PM 35.6 °F 32.8 °F 32.0 °F 87% 29.69 in 9.0 mi NNW 3.5 mph - 0.00 in Snow Light Snow
1:45 PM 35.6 °F 32.8 °F 32.0 °F 87% 29.70 in 2.5 mi NNW 3.5 mph - 0.00 in Snow Light Snow
1:52 PM 36.0 °F - 32.0 °F 86% 29.74 in 9.0 mi Calm Calm - 0.00 in   Overcast
2:19 PM 35.6 °F 31.7 °F 32.0 °F 87% 29.72 in 9.0 mi NNW 4.6 mph - 0.00 in Rain Light Rain
2:26 PM 35.6 °F 29.9 °F 32.0 °F 87% 29.73 in 5.0 mi North 6.9 mph - 0.00 in Snow Light Snow
2:52 PM 35.1 °F - 32.0 °F 89% 29.78 in 5.0 mi Calm Calm - 0.00 in Snow Light Snow
3:52 PM 36.0 °F - 32.0 °F 86% 29.81 in 10.0 mi Calm Calm - 0.01 in   Overcast
4:24 PM 35.6 °F 31.7 °F 30.2 °F 81% 29.79 in 10.0 mi NNW 4.6 mph - N/A   Overcast
4:42 PM 35.6 °F - 30.2 °F 81% 29.80 in 10.0 mi Calm Calm - N/A   Overcast
4:52 PM 35.1 °F - 32.0 °F 89% 29.85 in 10.0 mi Calm Calm - N/A   Overcast
5:52 PM 35.1 °F 32.2 °F 30.9 °F 85% 29.90 in 10.0 mi WNW 3.5 mph - N/A   Overcast
6:52 PM 34.0 °F - 30.9 °F 89% 29.92 in 10.0 mi Calm Calm - N/A   Overcast
7:52 PM 35.1 °F 31.0 °F 30.0 °F 82% 29.96 in 10.0 mi NW 4.6 mph - N/A   Overcast
8:52 PM 34.0 °F - 30.9 °F 89% 29.99 in 10.0 mi Calm Calm - N/A   Overcast
9:52 PM 33.1 °F - 30.9 °F 92% 30.00 in 10.0 mi Calm Calm - 0.00 in   Overcast
10:04 PM 33.8 °F - 30.2 °F 87% 29.96 in 10.0 mi Calm Calm - N/A   Overcast
10:18 PM 33.8 °F - 30.2 °F 87% 29.96 in 10.0 mi Calm Calm - N/A   Overcast
10:52 PM 34.0 °F - 30.0 °F 85% 30.01 in 10.0 mi Calm Calm - N/A   Overcast
11:52 PM 34.0 °F - 30.0 °F 85% 30.03 in 10.0 mi Calm Calm - N/A   Overcast